This demonstration page uses our WeatherBlox Daily Observations layout. Learn more.

Left ArrowRight Arrow

Hourly Observations for June 18, 2021

Temp ( °F °C ) Dew Point ( °F °C ) Humidity (%) Winds ( mph kmh ) Pressure ( in mb ) Visibility ( mi km ) Precip ( " mm )
12:59 am 00:59 Clear 64 17.8 55 12.8 73 73 S 5 7 30.10 1019 10 16 0.00 0.00
1:59 am 01:59 Clear 63 17.2 56 13.3 78 78 S 6 9 30.10 1019 10 16 0.00 0.00
2:59 am 02:59 Clear 61 16.1 56 13.3 84 84 Calm 30.10 1019 10 16 0.00 0.00
3:59 am 03:59 Clear 61 16.1 56 13.3 84 84 Calm 30.10 1019 10 16 0.00 0.00
4:59 am 04:59 Clear 61 16.1 56 13.3 84 84 Calm 30.11 1020 10 16 0.00 0.00
5:59 am 05:59 Sunny 60 15.6 55 12.8 84 84 S 3 6 30.12 1020 10 16 0.00 0.00
6:59 am 06:59 Mostly Sunny 66 18.9 58 14.4 75 75 S 5 7 30.12 1020 10 16 0.00 0.00
7:59 am 07:59 Mostly Sunny 71 21.7 58 14.4 63 63 S 7 11 30.13 1020 10 16 0.00 0.00
8:59 am 08:59 Sunny 75 23.9 57 13.9 54 54 S 8 13 30.11 1020 10 16 0.00 0.00
9:59 am 09:59 Sunny 78 25.6 54 12.2 43 43 SW 8 13 30.11 1020 10 16 0.00 0.00
10:59 am 10:59 Sunny 79 26.1 52 11.1 39 39 VRB 6 9 30.11 1020 10 16 0.00 0.00
11:59 am 11:59 Mostly Sunny 81 27.2 52 11.1 37 37 S 8 13 30.09 1019 10 16 0.00 0.00
12:59 pm 12:59 Mostly Sunny 83 28.3 54 12.2 37 37 SSW 9 15 30.09 1019 10 16 0.00 0.00
1:59 pm 13:59 Partly Cloudy 84 28.9 55 12.8 37 37 S 9 15 30.08 1019 10 16 0.00 0.00
2:59 pm 14:59 Partly Cloudy 85 29.4 57 13.9 39 39 SW 8 13 30.06 1018 10 16 0.00 0.00
3:59 pm 15:59 Partly Cloudy 86 30 57 13.9 37 37 SW 7 11 30.04 1017 10 16 0.00 0.00
4:59 pm 16:59 Partly Cloudy 86 30 58 14.4 39 39 SW 12 19 30.02 1017 10 16 0.00 0.00
5:59 pm 17:59 Partly Cloudy 85 29.4 57 13.9 39 39 SSW 10 17 29.99 1016 10 16 0.00 0.00
6:59 pm 18:59 Partly Cloudy 84 28.9 57 13.9 40 40 SSW 10 17 29.97 1015 10 16 0.00 0.00
7:59 pm 19:59 Partly Cloudy 82 27.8 57 13.9 42 42 S 10 17 29.98 1015 10 16 0.00 0.00
8:59 pm 20:59 Clear 79 26.1 59 15 50 50 S 9 15 29.98 1015 10 16 0.00 0.00
9:59 pm 21:59 Partly Cloudy 78 25.6 59 15 52 52 S 12 19 29.99 1016 10 16 0.00 0.00
10:59 pm 22:59 Partly Cloudy 76 24.4 58 14.4 54 54 SSW 10 17 30.00 1016 10 16 0.00 0.00
11:59 pm 23:59 Clear 76 24.4 58 14.4 54 54 S 14 22 29.99 1016 10 16 0.00 0.00

Powered by AerisWeather